EW6514 Pembroke MA US current weather conditions

sailwx.info

Wind from 151

Air temperature 21.1° C
Dewpoint 19.4° C

Last reported at 2020-May-29 03:20 UTC.
Time now 2020-May-29 04:01 UTC

Location: N 42°05' W 070°46'.
View on Google Maps.

See reports from other nearby stations

  
Tides and Currents Weather Stations Pressure Air Temp Water Temp Dewpoint Dewpoint Depression Visibility Wind Speed Wind Dir Waves Ship Positions
date/time (UTC)wind fromknots sea level pressurealtimeterstation pressurevisibilityair tempwater tempwave heightnotes
2020-May-29 03:20 151 21.1
2020-May-29 03:15 042 21.1
2020-May-29 03:10 347 21.1
2020-May-29 03:05 342 21.1
2020-May-29 03:00 004 21.1
2020-May-29 02:55 314 21.1
2020-May-29 02:50 247 21.1
2020-May-29 02:45 213 20.6
2020-May-29 02:40 246 20.6
2020-May-29 02:35 096 20.6
2020-May-29 02:30 061 20.6
2020-May-29 02:25 120 20.6
2020-May-29 02:20 112 20.6
2020-May-29 02:15 077 20.6
2020-May-29 02:10 166 20.6
2020-May-29 02:05 042 20.6
2020-May-29 02:00 320 20.6
2020-May-29 01:55 341 20.6
2020-May-29 01:50 014 20.6
2020-May-29 01:45 041 20.6
2020-May-29 01:40 308 20.6
2020-May-29 01:35 017 20.6
2020-May-29 01:30 045 20.6
2020-May-29 01:25 285 20.6
2020-May-29 01:20 138 20.6
2020-May-29 01:15 109 20.6
2020-May-29 01:10 090 21.1
2020-May-29 01:05 066 21.1
2020-May-29 01:00 106 21.1
2020-May-29 00:55 106 21.1
2020-May-29 00:50 059 21.1
2020-May-29 00:45 109 21.1
2020-May-29 00:40 135 21.1
2020-May-29 00:35 158 21.7
2020-May-29 00:30 143 21.7
2020-May-29 00:25 145 21.7
2020-May-29 00:20 141 21.7
2020-May-29 00:15 136 21.7
2020-May-29 00:10 035 22.2
2020-May-29 00:05 082 22.2
2020-May-29 00:00 085 22.2
2020-May-28 23:55 076 22.2
2020-May-28 23:50 080 22.2
2020-May-28 23:45 045 22.2
2020-May-28 23:40 212 22.2
2020-May-28 23:35 041 22.2
2020-May-28 23:30 032 22.2
2020-May-28 23:25 331 22.2
2020-May-28 23:20 101 22.8
2020-May-28 23:15 123 22.8
2020-May-28 23:10 119 22.8
2020-May-28 23:05 092 23.3
2020-May-28 23:00 067 23.3
2020-May-28 22:55 096 23.3
2020-May-28 22:50 118 23.3
2020-May-28 22:45 146 23.9
2020-May-28 22:40 111 23.9
2020-May-28 22:35 359 23.9
2020-May-28 22:30 334 0 gusting 4 23.9
2020-May-28 22:25 310 0 gusting 5 24.4
2020-May-28 22:20 340 24.4
2020-May-28 22:15 096 24.4
2020-May-28 22:10 077 24.4
2020-May-28 22:05 343 24.4
2020-May-28 22:00 276 24.4
2020-May-28 21:55 316 25.0
2020-May-28 21:50 348 0 gusting 2 25.0
2020-May-28 21:45 048 25.0
2020-May-28 21:40 085 25.0
2020-May-28 21:35 217 25.0
2020-May-28 21:30 199 25.6
2020-May-28 21:25 164 0 gusting 5 25.6
2020-May-28 21:20 136 0 gusting 5 26.1
2020-May-28 21:15 121 0 gusting 5 26.7
2020-May-28 21:10 340 0 gusting 5 26.7
2020-May-28 21:05 304 26.7
2020-May-28 21:00 149 26.1
2020-May-28 20:55 111 0 gusting 3 25.6
2020-May-28 20:45 025 25.6
2020-May-28 20:40 268 25.6
2020-May-28 20:35 259 0 gusting 2 25.6
2020-May-28 20:30 318 0 gusting 3 25.6
2020-May-28 20:25 108 0 gusting 6 25.6
2020-May-28 20:20 167 26.1
2020-May-28 20:15 318 26.1
2020-May-28 20:10 163 26.1
2020-May-28 20:05 154 0 gusting 6 26.1
2020-May-28 20:00 154 26.1
2020-May-28 19:55 234 26.1
2020-May-28 19:50 246 26.1
2020-May-28 19:45 285 26.1
2020-May-28 19:40 347 0 gusting 5 26.1
2020-May-28 19:35 317 0 gusting 5 26.7
2020-May-28 19:30 279 0 gusting 3 26.1
2020-May-28 19:25 275 26.7
2020-May-28 19:20 284 26.7
2020-May-28 19:15 278 26.7
2020-May-28 19:10 276 26.1
2020-May-28 19:05 134 0 gusting 5 26.1
2020-May-28 19:00 140 0 gusting 5 26.1
2020-May-28 18:55 143 0 gusting 4 26.1
2020-May-28 18:50 335 26.1
2020-May-28 18:45 294 26.1
2020-May-28 18:40 216 26.1
2020-May-28 18:35 175 0 gusting 4 26.1
2020-May-28 18:30 213 0 gusting 4 26.1
2020-May-28 18:25 330 0 gusting 3 26.1
2020-May-28 18:20 337 0 gusting 3 26.7
2020-May-28 18:15 333 26.7
2020-May-28 18:10 349 26.7
2020-May-28 18:05 343 0 gusting 4 26.7
2020-May-28 18:00 343 0 gusting 5 26.7
2020-May-28 17:55 353 0 gusting 5 26.7
2020-May-28 17:50 337 0 gusting 4 26.7
2020-May-28 17:45 312 0 gusting 6 26.7
2020-May-28 17:40 311 0 gusting 6 27.2
2020-May-28 17:35 350 0 gusting 5 26.7
2020-May-28 17:30 336 0 gusting 5 26.7
2020-May-28 17:25 310 26.7
2020-May-28 17:20 318 0 gusting 3 26.7
2020-May-28 17:15 315 0 gusting 3 26.7
2020-May-28 17:10 007 0 gusting 3 26.1
2020-May-28 17:05 334 0 gusting 6 26.1
2020-May-28 17:00 311 0 gusting 6 26.1
2020-May-28 16:55 340 0 gusting 4 26.1
2020-May-28 16:50 030 0 gusting 4 26.1
2020-May-28 16:45 303 26.1
2020-May-28 16:40 327 25.6
2020-May-28 16:35 315 0 gusting 5 25.6
2020-May-28 16:30 286 0 gusting 3 25.0
2020-May-28 16:25 285 0 gusting 5 25.0
2020-May-28 16:20 297 0 gusting 5 25.0
2020-May-28 16:15 317 25.0
2020-May-28 16:10 256 0 gusting 4 24.4
2020-May-28 16:05 249 0 gusting 4 24.4
2020-May-28 16:00 325 23.9
2020-May-28 15:55 340 0 gusting 2 23.9
2020-May-28 15:50 359 0 gusting 2 23.9
2020-May-28 15:45 317 23.3
2020-May-28 15:40 305 23.3
2020-May-28 15:35 316 23.3
2020-May-28 15:30 352 23.3
2020-May-28 15:25 347 22.8
2020-May-28 15:20 272 22.8
2020-May-28 15:15 317 22.2
2020-May-28 15:10 350 22.2
2020-May-28 15:05 336 22.2
2020-May-28 15:00 321 21.7
2020-May-28 14:55 222 21.7
2020-May-28 14:50 160 21.7
2020-May-28 14:45 054 21.1
2020-May-28 14:40 056 21.1
2020-May-28 14:35 089 21.1
2020-May-28 14:30 270 21.1
2020-May-28 14:25 271 21.1
2020-May-28 14:20 047 21.1
2020-May-28 14:15 020 21.1
2020-May-28 14:10 337 21.1
2020-May-28 14:05 358 21.1
2020-May-28 14:00 242 21.1
2020-May-28 13:55 210 21.1
2020-May-28 13:50 207 20.6
2020-May-28 13:45 353 20.6
2020-May-28 13:40 345 20.6
2020-May-28 13:35 329 20.6
2020-May-28 13:30 023 20.6
2020-May-28 13:25 021 20.6
2020-May-28 13:20 280 20.6
2020-May-28 13:15 012 20.0
2020-May-28 13:10 345 20.0
2020-May-28 13:05 344 20.0
2020-May-28 13:00 010 20.6
2020-May-28 12:55 347 20.6
2020-May-28 12:50 337 20.6
2020-May-28 12:45 290 20.6
2020-May-28 12:40 305 20.6
2020-May-28 12:35 305 20.6
2020-May-28 12:30 139 20.6
2020-May-28 12:25 002 20.0
2020-May-28 12:20 037 20.0
2020-May-28 12:15 059 20.0
2020-May-28 12:10 034 20.0
2020-May-28 12:05 274 20.0
2020-May-28 12:00 274 20.0
2020-May-28 11:55 20.0
2020-May-28 11:50 20.0
2020-May-28 11:45 130 20.0
2020-May-28 11:40 127 20.0
2020-May-28 11:35 134 20.0
2020-May-28 11:30 136 20.0
2020-May-28 11:25 098 20.0
2020-May-28 11:20 091 20.0
2020-May-28 11:15 024 20.0
2020-May-28 11:10 358 20.0
2020-May-28 11:05 339 20.0
2020-May-28 11:00 19.4
2020-May-28 10:55 123 19.4
2020-May-28 10:50 128 19.4
2020-May-28 10:45 284 19.4
2020-May-28 10:40 284 19.4
2020-May-28 10:35 284 19.4
2020-May-28 10:30 353 19.4
2020-May-28 10:25 344 18.9
2020-May-28 10:20 295 18.9
2020-May-28 10:15 358 18.9
2020-May-28 10:10 050 18.9
2020-May-28 10:05 025 18.9
2020-May-28 10:00 002 18.9
2020-May-28 09:55 242 18.9
2020-May-28 09:50 241 18.9
2020-May-28 09:45 069 18.9
2020-May-28 09:40 022 18.9
2020-May-28 09:35 343 18.9
2020-May-28 09:30 347 18.9
2020-May-28 09:25 338 18.9
2020-May-28 09:20 323 18.9
2020-May-28 09:15 348 18.9
2020-May-28 09:10 061 18.9
2020-May-28 09:05 058 18.9
2020-May-28 09:00 321 18.9
2020-May-28 08:55 295 18.9
2020-May-28 08:50 206 18.9
2020-May-28 08:45 205 18.9
2020-May-28 08:40 322 18.9
2020-May-28 08:35 339 18.9
2020-May-28 08:30 307 18.9
2020-May-28 08:25 308 18.9
2020-May-28 08:20 350 18.9
2020-May-28 08:15 353 18.9
2020-May-28 08:10 040 18.9
2020-May-28 08:05 051 18.9
2020-May-28 08:00 044 18.9
2020-May-28 07:55 18.9
2020-May-28 07:50 267 18.9
2020-May-28 07:45 307 18.9
2020-May-28 07:40 349 18.9
2020-May-28 07:35 018 18.9
2020-May-28 07:30 013 18.9
2020-May-28 07:25 002 18.9
2020-May-28 07:20 183 18.9
2020-May-28 07:15 163 18.9
2020-May-28 07:10 237 18.9
2020-May-28 07:05 262 18.9
2020-May-28 07:00 188 18.9
2020-May-28 06:55 167 18.9
2020-May-28 06:50 227 18.9
2020-May-28 06:45 227 18.9
2020-May-28 06:40 18.9
2020-May-28 06:35 18.3
2020-May-28 06:30 18.3
2020-May-28 06:25 18.3
2020-May-28 06:20 18.3
2020-May-28 06:15 18.3
2020-May-28 06:10 208 18.3
2020-May-28 06:05 177 18.3
2020-May-28 06:00 184 18.3
2020-May-28 05:55 243 18.3
2020-May-28 05:50 237 18.3
2020-May-28 05:45 222 18.9
2020-May-28 05:40 227 18.9
2020-May-28 05:35 231 18.9
2020-May-28 05:30 151 18.9
2020-May-28 05:25 150 18.9
2020-May-28 05:20 124 18.9
2020-May-28 05:15 273 18.9
2020-May-28 05:10 256 18.9
2020-May-28 05:05 301 18.9
2020-May-28 05:00 343 18.9
2020-May-28 04:55 041 18.9
2020-May-28 04:50 040 18.9
2020-May-28 04:45 002 18.9
2020-May-28 04:40 358 18.9
2020-May-28 04:35 006 18.9
2020-May-28 04:30 344 18.9
2020-May-28 04:25 018 18.9
2020-May-28 04:20 079 18.9
2020-May-28 04:15 125 18.9
2020-May-28 04:10 031 18.9
2020-May-28 04:05 005 18.9
2020-May-28 04:00 355 18.9
2020-May-28 03:55 044 18.9
2020-May-28 03:50 052 18.9
2020-May-28 03:45 331 19.4
2020-May-28 03:40 083 19.4
2020-May-28 03:35 067 19.4
2020-May-28 03:30 055 19.4
2020-May-28 03:25 017 19.4
2020-May-28 03:20 010 18.9
2020-May-28 03:15 356 18.9
2020-May-28 03:10 004 18.9
2020-May-28 03:05 100 18.9
2020-May-28 03:00 107 18.9
2020-May-28 02:55 088 18.9
2020-May-28 02:50 056 18.9
2020-May-28 02:45 070 18.9
2020-May-28 02:40 047 18.3
2020-May-28 02:35 047 18.9
2020-May-28 02:30 034 18.9
2020-May-28 02:25 034 18.9
2020-May-28 02:20 18.9
2020-May-28 02:15 18.9
2020-May-28 02:10 18.9
2020-May-28 02:05 014 18.9
2020-May-28 02:00 014 18.9
2020-May-28 01:55 070 18.9
2020-May-28 01:50 070 18.9
2020-May-28 01:45 18.9
2020-May-28 01:40 082 19.4
2020-May-28 01:35 082 19.4
2020-May-28 01:30 19.4
2020-May-28 01:25 240 19.4
2020-May-28 01:20 114 19.4
2020-May-28 01:15 079 19.4
2020-May-28 01:10 070 19.4
2020-May-28 01:05 231 20.0
2020-May-28 01:00 090 20.0
2020-May-28 00:55 066 20.0
2020-May-28 00:50 317 20.0
2020-May-28 00:45 20.0
2020-May-28 00:40 024 20.0
2020-May-28 00:35 021 20.0
2020-May-28 00:30 012 20.6
2020-May-28 00:25 140 20.6
2020-May-28 00:20 129 20.6
2020-May-28 00:15 070 21.1
2020-May-28 00:10 080 21.1
2020-May-28 00:05 070 21.1
2020-May-28 00:00 060 21.1
2020-May-27 23:55 071 21.7
2020-May-27 23:50 326 21.7
2020-May-27 23:45 356 21.7
2020-May-27 23:40 275 22.2
2020-May-27 23:35 020 22.2
2020-May-27 23:30 006 22.2
2020-May-27 23:25 036 22.2
2020-May-27 23:20 140 22.8
2020-May-27 23:15 147 22.8
2020-May-27 23:10 001 22.8
2020-May-27 23:05 031 23.3
2020-May-27 23:00 160 23.3
2020-May-27 22:55 186 23.3
2020-May-27 22:50 054 23.9
2020-May-27 22:45 045 23.9
2020-May-27 22:40 271 23.9
2020-May-27 22:35 286 23.9
2020-May-27 22:30 329 0 gusting 5 24.4
2020-May-27 22:25 055 0 gusting 3 24.4
2020-May-27 22:20 135 0 gusting 7 24.4
2020-May-27 22:15 139 0 gusting 7 25.0
2020-May-27 22:10 047 25.0
2020-May-27 22:05 036 25.6
2020-May-27 22:00 320 25.6
2020-May-27 21:55 210 0 gusting 4 26.1
2020-May-27 21:50 194 0 gusting 4 26.1
2020-May-27 21:45 210 0 gusting 5 26.1
2020-May-27 21:40 215 0 gusting 5 26.7
2020-May-27 21:35 251 26.7
2020-May-27 21:30 291 26.7
2020-May-27 21:25 026 26.7
2020-May-27 21:20 050 27.2
2020-May-27 21:15 242 0 gusting 2 27.2
2020-May-27 21:10 211 0 gusting 4 27.8
2020-May-27 21:05 114 27.8
2020-May-27 21:00 137 27.8
2020-May-27 20:55 108 27.8
2020-May-27 20:50 209 0 gusting 3 27.8
2020-May-27 20:45 151 0 gusting 6 27.8
2020-May-27 20:40 151 0 gusting 6 27.8
2020-May-27 20:35 187 0 gusting 3 27.8
2020-May-27 20:30 213 0 gusting 3 27.8
2020-May-27 20:25 160 0 gusting 5 27.2
2020-May-27 20:20 134 0 gusting 5 27.2
2020-May-27 20:15 032 27.2
2020-May-27 20:10 357 0 gusting 4 27.2
2020-May-27 20:05 279 0 gusting 5 27.2
2020-May-27 20:00 181 0 gusting 5 27.2
2020-May-27 19:55 149 0 gusting 5 27.2
2020-May-27 19:50 123 0 gusting 5 27.2
2020-May-27 19:45 148 0 gusting 5 27.2
2020-May-27 19:40 130 0 gusting 6 27.2
2020-May-27 19:35 129 0 gusting 6 27.2
2020-May-27 19:30 278 27.2
2020-May-27 19:25 249 27.2
2020-May-27 19:20 163 0 gusting 5 27.2
2020-May-27 19:15 149 1 gusting 5 27.8
2020-May-27 19:10 139 0 gusting 6 27.8
2020-May-27 19:05 209 0 gusting 6 27.8
2020-May-27 19:00 172 0 gusting 3 28.3
2020-May-27 18:55 147 0 gusting 8 28.3
2020-May-27 18:50 136 0 gusting 9 28.9
2020-May-27 18:45 121 0 gusting 9 28.9
2020-May-27 18:40 145 0 gusting 4 28.9
2020-May-27 18:35 154 0 gusting 4 28.9
2020-May-27 18:30 112 0 gusting 4 28.9
2020-May-27 18:25 181 0 gusting 4 28.9
2020-May-27 18:20 143 0 gusting 6 28.9
2020-May-27 18:15 113 0 gusting 6 28.9
2020-May-27 18:10 075 0 gusting 3 28.9
2020-May-27 18:05 166 0 gusting 4 28.9
2020-May-27 18:00 207 0 gusting 4 28.9
2020-May-27 17:55 356 0 gusting 4 28.9
2020-May-27 17:50 119 0 gusting 4 28.9
2020-May-27 17:45 107 0 gusting 6 28.9
2020-May-27 17:40 341 0 gusting 6 28.9
2020-May-27 17:35 307 0 gusting 2 28.9
2020-May-27 17:30 307 0 gusting 2 29.4
2020-May-27 17:25 109 0 gusting 3 28.9
2020-May-27 17:20 115 0 gusting 3 28.9
2020-May-27 17:15 080 0 gusting 5 28.9
2020-May-27 17:10 045 0 gusting 5 28.9
2020-May-27 17:05 090 0 gusting 5 28.9
2020-May-27 17:00 225 0 gusting 5 28.3
2020-May-27 16:55 160 0 gusting 6 28.3
2020-May-27 16:50 174 0 gusting 6 28.3
2020-May-27 16:45 264 0 gusting 3 28.3
2020-May-27 16:40 251 0 gusting 3 27.8
2020-May-27 16:35 197 0 gusting 6 27.8
2020-May-27 16:30 221 0 gusting 6 27.8
2020-May-27 16:25 255 0 gusting 5 27.8
2020-May-27 16:20 358 27.8
2020-May-27 16:15 356 0 gusting 5 27.2
2020-May-27 16:10 335 0 gusting 6 27.2
2020-May-27 16:05 339 0 gusting 6 27.2
2020-May-27 16:00 350 0 gusting 4 27.2
2020-May-27 15:55 349 0 gusting 6 27.2
2020-May-27 15:50 341 0 gusting 6 27.2
2020-May-27 15:45 323 0 gusting 4 27.2
2020-May-27 15:40 270 0 gusting 4 27.2
2020-May-27 15:35 191 0 gusting 3 27.8
2020-May-27 15:30 176 0 gusting 3 27.2
2020-May-27 15:25 161 0 gusting 3 27.8
2020-May-27 15:20 027 27.8
2020-May-27 15:15 328 27.2
2020-May-27 15:10 354 0 gusting 4 26.7
2020-May-27 15:05 223 0 gusting 4 26.7
2020-May-27 15:00 257 0 gusting 5 26.7
2020-May-27 14:55 246 0 gusting 5 26.7
2020-May-27 14:50 292 0 gusting 4 26.7
2020-May-27 14:45 307 0 gusting 4 26.7
2020-May-27 14:40 196 0 gusting 3 26.7
2020-May-27 14:35 249 0 gusting 3 26.1
2020-May-27 14:30 276 0 gusting 4 26.1
2020-May-27 14:25 145 0 gusting 4 26.1
2020-May-27 14:20 340 25.6
2020-May-27 14:15 324 0 gusting 3 25.6
2020-May-27 14:10 175 0 gusting 5 25.6
2020-May-27 14:05 098 0 gusting 5 25.0
2020-May-27 14:00 018 0 gusting 3 24.4
2020-May-27 13:55 205 0 gusting 6 24.4
2020-May-27 13:50 238 0 gusting 6 23.9
2020-May-27 13:45 255 23.9
2020-May-27 13:40 229 23.9
2020-May-27 13:35 181 23.3
2020-May-27 13:30 038 23.3
2020-May-27 13:25 037 22.8
2020-May-27 13:20 241 22.8
2020-May-27 13:15 308 22.2
2020-May-27 13:10 332 0 gusting 3 22.2
2020-May-27 13:05 320 0 gusting 2 22.2
2020-May-27 13:00 328 21.7
2020-May-27 12:55 331 21.7
2020-May-27 12:50 341 22.2
2020-May-27 12:45 346 21.7
2020-May-27 12:40 342 21.7
2020-May-27 12:35 029 21.1
2020-May-27 12:30 036 21.1
2020-May-27 12:25 003 21.1
2020-May-27 12:20 008 20.6
2020-May-27 12:15 003 20.0
2020-May-27 12:10 008 20.0
2020-May-27 12:05 018 19.4
2020-May-27 12:00 354 18.9
2020-May-27 11:55 356 18.9
2020-May-27 11:50 346 18.9
2020-May-27 11:45 354 18.3
2020-May-27 11:40 356 18.3
2020-May-27 11:35 346 17.8
2020-May-27 11:30 354 17.2
2020-May-27 11:25 003 17.2
2020-May-27 11:20 001 16.7
2020-May-27 11:15 352 16.7
2020-May-27 11:10 356 16.7
2020-May-27 11:05 354 16.1
2020-May-27 11:00 045 16.1
2020-May-27 10:55 045 16.1
2020-May-27 10:50 037 15.6
2020-May-27 10:45 015 15.6
2020-May-27 10:40 036 15.6
2020-May-27 10:35 019 15.6
2020-May-27 10:30 348 15.6
2020-May-27 10:25 005 15.6
2020-May-27 10:20 15.6
2020-May-27 10:15 15.6
2020-May-27 10:10 023 15.6
2020-May-27 10:05 023 15.6
2020-May-27 10:00 042 15.6
2020-May-27 09:55 042 15.6
2020-May-27 09:50 15.6
2020-May-27 09:45 15.6
2020-May-27 09:40 15.6
2020-May-27 09:35 15.6
2020-May-27 09:30 15.6
2020-May-27 09:25 15.6
2020-May-27 09:20 15.6
2020-May-27 09:15 15.6
2020-May-27 09:10 15.0
2020-May-27 09:05 15.0
2020-May-27 09:00 15.0
2020-May-27 08:55 15.0
2020-May-27 08:50 15.0
2020-May-27 08:45 15.0
2020-May-27 08:40 004 15.0
2020-May-27 08:35 004 15.0
2020-May-27 08:30 15.0
2020-May-27 08:25 008 15.0
2020-May-27 08:20 005 15.6
2020-May-27 08:15 004 15.6
2020-May-27 08:10 343 15.6
2020-May-27 08:05 343 15.6
2020-May-27 08:00 15.6
2020-May-27 07:55 15.6
2020-May-27 07:50 15.6
2020-May-27 07:45 15.6
2020-May-27 07:40 15.6
2020-May-27 07:35 15.6
2020-May-27 07:30 344 15.6
2020-May-27 07:25 342 15.6
2020-May-27 07:20 354 15.6
2020-May-27 07:15 001 15.6
2020-May-27 07:10 345 16.1
2020-May-27 07:05 354 16.1
2020-May-27 07:00 348 16.1
2020-May-27 06:55 347 16.1
2020-May-27 06:50 020 16.1
2020-May-27 06:45 032 16.1
2020-May-27 06:40 16.1
2020-May-27 06:35 339 16.1
2020-May-27 06:30 339 16.1
2020-May-27 06:25 335 16.1
2020-May-27 06:20 342 16.1
2020-May-27 06:15 351 16.1
2020-May-27 06:10 002 16.1
2020-May-27 06:05 356 16.1
2020-May-27 06:00 004 16.1
2020-May-27 05:55 017 16.1
2020-May-27 05:50 16.1
2020-May-27 05:45 346 16.1
2020-May-27 05:40 346 16.1
2020-May-27 05:35 16.1
2020-May-27 05:30 16.1
2020-May-27 05:25 16.1
2020-May-27 05:20 001 16.1
2020-May-27 05:15 001 16.1
2020-May-27 05:10 343 16.1
2020-May-27 05:05 354 16.1
2020-May-27 05:00 002 16.1
2020-May-27 04:55 093 16.1
2020-May-27 04:50 093 16.1
2020-May-27 04:45 038 16.1
2020-May-27 04:40 054 16.1
2020-May-27 04:35 042 16.7
2020-May-27 04:30 002 16.7
2020-May-27 04:25 358 16.7
2020-May-27 04:20 358 16.7
2020-May-27 04:15 347 16.7
2020-May-27 04:10 347 16.7
2020-May-27 04:05 16.7
2020-May-27 04:00 16.7